DELTA 1 DEB, 42636

Orbit data source: Space-Track

DELTA 1 DEB, 42636 is space debris in SSO originally from a launch on Thu, 12 Jun 1975 UTC launched from the Air Force Western Test Range (AFWTR). Debris objects in space refer to the collection of defunct objects orbiting the Earth. Examples of debris include non-operational satellites, rocket bodies, and fragments generated from explosions, collisions, or faulty payload assembly.

Loading next visibility...
Identifier
42636, 1975-052LV
Orbit
SSO
Country
Flag of USUS
Related business
Manufacturer
Unknown
Mission
Spacecraft
Bus & Motor
Unknown
Mass
Unknown
Launch date (UTC)
1975-06-12 (51 years ago)
Launch vehicle
Unknown
Launch site
Air Force Western Test Range (AFWTR)
Object type
Payload
Rocket body
Debris
Shape & HBR
Unknown shape, 0.1 m
Radar Cross Section
Small (<0.1 m²)

Expand to show TLE details & history
Last TLE update: 15 hours ago

TLE from 15 hours ago
0 DELTA 1 DEB
1 42636U 75052LV  26034.52107411  .00000228  00000-0  61390-3 0  9990
2 42636  99.6791 232.2752 0130619 121.9721 266.1874 13.22173274588300
Epoch: 2026-02-03T12:30Z
TLE epoch observation values (Epoch: 2026-02-03T12:30:20.803Z)
Latitude
26.2931°
Longitude
-93.82175°
Altitude
1,187.33 km
Speed
7.259 km/s
True Right ascension
15h 09m 51s
True Declination
26° 09' 52"
Sunlit
Object was in daylight at epoch
Visualization orbit readout
Latitude
Unknown
Longitude
Unknown
Altitude
Unknown
Speed
Unknown
Apparent Right ascension
Unknown
Apparent Declination
Unknown
Sunlit
N/A
Visualization observer readout
Local Sidereal Time
05:01:24
Azimuth
Unknown
Elevation
Unknown
Doppler factor
Unknown
Orbital elements
Apogee altitude
1,272.409 km
Perigee altitude
1,075.125 km
Semi-major axis
7,551.904 km
Eccentricity
0.01306
Inclination
99.6791°
RAAN
232.2752°
Arg. of periapsis
121.9721°
True anomaly
264.69572°
Mean anomaly
266.1874°
Eccentric anomaly
265.44138°
Mean motion
3.30718 °/min
Orbital period
108.85 mins
BSTAR
0.0006139
Loading maneuver chart data...
Computing Atmospheric mass density...
Loading historical data...
Loading historical data...
Loading historical data...
Loading historical data...
Loading historical data...
Loading historical data...
Loading historical data...

Documentation

Showing up to 5 results
|